Change the Weather History Date:

Monday, May 19, 2014

  Actual Average Record
Temperature  
Mean Temperature 59 °F -  
Max Temperature 78 °F - - ()
Min Temperature 40 °F - - ()
Degree Days  
Heating Degree Days 6    
Growing Degree Days 9 (Base 50)    
Moisture  
Dew Point 48 °F    
Average Humidity 61    
Maximum Humidity 98    
Minimum Humidity 21    
Precipitation  
Precipitation 0.00 in - - ()
Sea Level Pressure  
Sea Level Pressure 29.75 in    
Wind  
Wind Speed 3 mph ()    
Max Wind Speed 14 mph    
Max Gust Speed -    
Visibility 4.7 miles    
Events Fog    
T = Trace of Precipitation, MM = Missing Value Source: Averaged Metar Reports

Daily Weather History Graph

Daily Weather History Graph

Search for Another Location

Airport or City:

Trip Planner

Search our weather history database for the weather conditions in past years. The results will help you decide how hot, cold, wet, or windy it might be!

Date:

Astronomy

May. 19, 2014 Rise Set
Actual Time 5:51 AM CEST 9:25 PM CEST
Civil Twilight 5:11 AM CEST 10:05 PM CEST
Nautical Twilight 4:17 AM CEST 10:59 PM CEST
Astronomical Twilight 3:02 AM CEST 12:16 AM CEST
Moon 12:54 AM CEST (5/19) 10:38 AM CEST (5/19)
Length of Visible Light 16h 53m
Length of Day
15h 33m
Waning Gibbous, 74% of the Moon is Illuminated
May 19
Waning Gibbous
May 21
Last Quarter
May 28
New
Jun 5
First Quarter
Jun 13
Full

Hourly Weather History & Observations

Time (CEST) Temp. Dew Point Humidity Pressure Visibility Wind Dir Wind Speed Gust Speed Precip Events Conditions
12:00 AM 50 °F 48 °F 91% 29.82 in - Calm Calm - -  
1:00 AM 49 °F 47 °F 91% 29.82 in 7 mi Calm Calm - -   Clear
2:00 AM 46 °F 44 °F 91% 29.81 in 0 mi Calm Calm - - Fog Partial Fog
3:00 AM 45 °F 44 °F 97% 29.80 in 1 mi Calm Calm - -   Mist
4:00 AM 44 °F 44 °F 97% 29.80 in 6 mi SW 1.2 mph - -   Clear
5:00 AM 42 °F 42 °F 98% 29.79 in 0 mi Calm Calm - - Fog Partial Fog
6:00 AM 42 °F 41 °F 97% 29.78 in 10 mi Calm Calm - -   Clear
7:00 AM 45 °F 44 °F 97% 29.78 in 7 mi ENE 1.2 mph - -   Clear
8:00 AM 53 °F 52 °F 93% 29.77 in 7 mi SE 1.2 mph - -   Clear
9:00 AM 60 °F 52 °F 68% 29.76 in - SSE 3.5 mph - -  
10:00 AM 64 °F 52 °F 55% 29.75 in - ESE 8.1 mph - -  
11:00 AM 67 °F 53 °F 50% 29.75 in - ESE 6.9 mph - -  
12:00 PM 70 °F 51 °F 40% 29.73 in - SSE 5.8 mph - -  
1:00 PM 72 °F 54 °F 42% 29.72 in - ESE 8.1 mph - -  
2:00 PM 74 °F 55 °F 40% 29.71 in - SE 8.1 mph - -  
3:00 PM 76 °F 48 °F 27% 29.70 in - South 10.4 mph - -  
4:00 PM 76 °F 46 °F 24% 29.69 in - South 12.7 mph - -  
5:00 PM 76 °F 44 °F 21% 29.69 in - South 13.8 mph - -  
6:00 PM 78 °F 47 °F 23% 29.68 in - South 10.4 mph - -  
7:00 PM 76 °F 47 °F 26% 29.69 in - SSE 11.5 mph - -  
8:00 PM 74 °F 49 °F 30% 29.70 in - South 6.9 mph - -  
9:00 PM 68 °F 51 °F 44% 29.71 in - SSE 4.6 mph - -  
10:00 PM 63 °F 50 °F 52% 29.73 in - SE 3.5 mph - -  
11:00 PM 56 °F 50 °F 75% 29.75 in - ESE 4.6 mph - -